When you browse on this site, cookies collect data to enhance your experience and personalize the content and advertising you see.
Visit our Privacy Policy to learn more. By continuing to use the site, you agree to this use of cookies and data.
  • In Switzerland
  • List of Countries
  • For 7 days
  • Water Temperature
  • Weather Map
  • Weather Widgets
  • user-avatar
    Login

    Hourly Weather Piran

    Today, 30 May, Saturday

    Time Temperature Precipitation Wind Pressure Humidity
    00:00 +13°C° 0 mm 4 mps 764 mmHg 75%
    01:00 +13°C° 0 mm 4 mps 764 mmHg 74%
    02:00 +12°C° 0 mm 4 mps 763 mmHg 75%
    03:00 +12°C° 0 mm 4 mps 763 mmHg 77%
    04:00 +11°C° 0 mm 4 mps 763 mmHg 78%
    05:00 +13°C° 0 mm 4 mps 763 mmHg 72%
    06:00 +14°C° 0 mm 3 mps 763 mmHg 66%
    07:00 +17°C° 0 mm 3 mps 762 mmHg 60%
    08:00 +19°C° 0 mm 3 mps 762 mmHg 54%
    09:00 +21°C° 0 mm 3 mps 762 mmHg 48%
    10:00 +24°C° 0 mm 2 mps 762 mmHg 41%
    11:00 +23°C° 0 mm 2 mps 761 mmHg 43%
    12:00 +23°C° 0 mm 2 mps 761 mmHg 44%
    13:00 +23°C° 0 mm 2 mps 761 mmHg 45%
    14:00 +21°C° 0 mm 2 mps 761 mmHg 52%
    15:00 +20°C° 0 mm 3 mps 760 mmHg 59%
    16:00 +19°C° 0 mm 3 mps 760 mmHg 66%
    17:00 +18°C° 0 mm 2 mps 760 mmHg 68%
    18:00 +18°C° 0 mm 2 mps 760 mmHg 70%
    19:00 +19°C° 0 mm 1 mps 761 mmHg 72%
    20:00 +17°C° 0 mm 2 mps 761 mmHg 72%
    21:00 +15°C° 0 mm 4 mps 762 mmHg 72%
    22:00 +14°C° 0 mm 5 mps 762 mmHg 71%
    23:00 +14°C° 0.1 mm 5 mps 762 mmHg 71%

    Tomorrow, 31 May, Sunday

    Time Temperature Precipitation Wind Pressure Humidity
    00:00 +14°C° 0.1 mm 4 mps 762 mmHg 70%
    01:00 +14°C° 0.1 mm 4 mps 762 mmHg 70%
    02:00 +13°C° 0 mm 3 mps 762 mmHg 72%
    03:00 +13°C° 0 mm 3 mps 762 mmHg 73%
    04:00 +12°C° 0 mm 3 mps 762 mmHg 75%
    05:00 +13°C° 0 mm 3 mps 762 mmHg 71%
    06:00 +16°C° 0 mm 2 mps 762 mmHg 68%
    07:00 +17°C° 0 mm 2 mps 762 mmHg 64%
    08:00 +18°C° 0 mm 2 mps 762 mmHg 57%
    09:00 +20°C° 0 mm 2 mps 762 mmHg 51%
    10:00 +21°C° 0 mm 2 mps 762 mmHg 45%
    11:00 +23°C° 0 mm 2 mps 761 mmHg 45%
    12:00 +23°C° 0 mm 2 mps 761 mmHg 45%
    13:00 +23°C° 0 mm 2 mps 761 mmHg 45%
    14:00 +23°C° 0 mm 2 mps 760 mmHg 45%
    15:00 +23°C° 0 mm 2 mps 760 mmHg 46%
    16:00 +21°C° 0 mm 3 mps 760 mmHg 47%
    17:00 +20°C° 0 mm 2 mps 760 mmHg 54%
    18:00 +20°C° 0 mm 1 mps 761 mmHg 62%
    19:00 +18°C° 0 mm 1 mps 761 mmHg 69%
    20:00 +18°C° 0 mm 1 mps 761 mmHg 71%
    21:00 +16°C° 0 mm 2 mps 762 mmHg 72%
    22:00 +15°C° 0 mm 2 mps 762 mmHg 74%
    23:00 +15°C° 0 mm 2 mps 762 mmHg 74%

    Day after tomorrow, 1 June, Monday

    Time Temperature Precipitation Wind Pressure Humidity
    00:00 +15°C° 0 mm 2 mps 762 mmHg 74%
    01:00 +15°C° 0 mm 2 mps 762 mmHg 74%
    02:00 +15°C° 0 mm 1 mps 762 mmHg 73%
    03:00 +15°C° 0 mm 1 mps 762 mmHg 73%
    04:00 +14°C° 0 mm 1 mps 762 mmHg 72%
    05:00 +16°C° 0 mm 1 mps 762 mmHg 67%
    06:00 +19°C° 0 mm 1 mps 762 mmHg 63%
    07:00 +20°C° 0 mm 1 mps 762 mmHg 58%
    08:00 +22°C° 0 mm 1 mps 762 mmHg 53%
    09:00 +23°C° 0 mm 2 mps 762 mmHg 47%
    10:00 +25°C° 0 mm 2 mps 762 mmHg 41%
    11:00 +25°C° 0 mm 2 mps 762 mmHg 42%
    12:00 +25°C° 0 mm 3 mps 761 mmHg 43%
    13:00 +25°C° 0 mm 3 mps 761 mmHg 44%
    14:00 +24°C° 0 mm 2 mps 761 mmHg 47%
    15:00 +24°C° 0 mm 2 mps 761 mmHg 51%
    16:00 +23°C° 0 mm 2 mps 761 mmHg 55%
    17:00 +21°C° 0 mm 2 mps 761 mmHg 61%
    18:00 +21°C° 0 mm 1 mps 761 mmHg 67%
    19:00 +21°C° 0 mm 1 mps 761 mmHg 74%
    20:00 +20°C° 0 mm 1 mps 761 mmHg 74%
    21:00 +18°C° 0 mm 2 mps 762 mmHg 74%
    22:00 +17°C° 0 mm 2 mps 762 mmHg 74%
    23:00 +17°C° 0 mm 2 mps 762 mmHg 72%

    2 June, Tuesday

    Time Temperature Precipitation Wind Pressure Humidity
    00:00 +16°C° 0 mm 3 mps 762 mmHg 71%
    01:00 +16°C° 0 mm 3 mps 762 mmHg 70%
    02:00 +16°C° 0 mm 3 mps 762 mmHg 68%
    03:00 +16°C° 0 mm 3 mps 762 mmHg 66%
    04:00 +16°C° 0 mm 3 mps 762 mmHg 64%
    05:00 +16°C° 0 mm 3 mps 762 mmHg 62%
    06:00 +17°C° 0 mm 2 mps 762 mmHg 60%
    07:00 +18°C° 0 mm 2 mps 762 mmHg 58%
    08:00 +20°C° 0 mm 2 mps 762 mmHg 54%
    09:00 +21°C° 0 mm 2 mps 762 mmHg 51%
    10:00 +24°C° 0 mm 1 mps 761 mmHg 47%
    11:00 +24°C° 0 mm 2 mps 761 mmHg 47%
    12:00 +24°C° 0 mm 2 mps 761 mmHg 46%
    13:00 +25°C° 0 mm 3 mps 760 mmHg 46%
    14:00 +24°C° 0 mm 3 mps 760 mmHg 49%
    15:00 +24°C° 0 mm 3 mps 759 mmHg 53%
    16:00 +22°C° 0 mm 3 mps 759 mmHg 56%
    17:00 +21°C° 0.1 mm 3 mps 759 mmHg 63%
    18:00 +20°C° 0.1 mm 2 mps 759 mmHg 71%
    19:00 +19°C° 0.1 mm 2 mps 759 mmHg 78%
    20:00 +19°C° 0 mm 1 mps 759 mmHg 81%
    21:00 +18°C° 0 mm 1 mps 759 mmHg 84%
    22:00 +16°C° 0 mm 1 mps 759 mmHg 86%
    23:00 +15°C° 0 mm 1 mps 759 mmHg 86%

    3 June, Wednesday

    Time Temperature Precipitation Wind Pressure Humidity
    00:00 +15°C° 0 mm 1 mps 759 mmHg 86%
    01:00 +15°C° 0 mm 2 mps 758 mmHg 86%
    02:00 +15°C° 0 mm 2 mps 758 mmHg 84%
    03:00 +15°C° 0 mm 1 mps 758 mmHg 82%
    04:00 +15°C° 0 mm 1 mps 757 mmHg 80%
    05:00 +16°C° 0 mm 1 mps 757 mmHg 76%
    06:00 +19°C° 0 mm 1 mps 757 mmHg 71%
    07:00 +20°C° 0 mm 1 mps 756 mmHg 67%
    08:00 +21°C° 0 mm 1 mps 756 mmHg 64%
    09:00 +22°C° 0 mm 1 mps 756 mmHg 61%
    10:00 +21°C° 0 mm 2 mps 756 mmHg 58%
    11:00 +23°C° 0 mm 2 mps 756 mmHg 53%
    12:00 +24°C° 0 mm 3 mps 755 mmHg 49%
    13:00 +25°C° 0 mm 4 mps 755 mmHg 44%
    14:00 +25°C° 0 mm 4 mps 755 mmHg 46%
    15:00 +23°C° 0 mm 4 mps 754 mmHg 48%
    16:00 +23°C° 0 mm 4 mps 754 mmHg 50%
    17:00 +22°C° 0 mm 4 mps 754 mmHg 57%
    18:00 +20°C° 0 mm 4 mps 754 mmHg 64%
    19:00 +19°C° 0 mm 4 mps 754 mmHg 71%
    20:00 +18°C° 0 mm 4 mps 754 mmHg 72%
    21:00 +18°C° 0 mm 4 mps 754 mmHg 73%
    22:00 +17°C° 0 mm 4 mps 754 mmHg 74%
    23:00 +17°C° 0.1 mm 4 mps 754 mmHg 76%

    4 June, Thursday

    Time Temperature Precipitation Wind Pressure Humidity
    00:00 +17°C° 0.1 mm 4 mps 754 mmHg 78%
    01:00 +17°C° 0.1 mm 4 mps 753 mmHg 80%
    02:00 +17°C° 0.2 mm 4 mps 753 mmHg 83%
    03:00 +17°C° 0.2 mm 3 mps 753 mmHg 87%
    04:00 +17°C° 0.2 mm 3 mps 753 mmHg 91%
    05:00 +18°C° 0.2 mm 3 mps 753 mmHg 90%
    06:00 +18°C° 0.2 mm 4 mps 753 mmHg 90%
    07:00 +19°C° 0.2 mm 4 mps 753 mmHg 89%
    08:00 +19°C° 0.4 mm 5 mps 753 mmHg 89%
    09:00 +20°C° 0.4 mm 5 mps 753 mmHg 89%
    10:00 +20°C° 0.4 mm 6 mps 753 mmHg 89%
    11:00 +20°C° 0.3 mm 6 mps 753 mmHg 84%
    12:00 +21°C° 0.3 mm 7 mps 753 mmHg 79%
    13:00 +21°C° 0.3 mm 8 mps 753 mmHg 75%
    14:00 +21°C° 0.2 mm 7 mps 752 mmHg 78%
    15:00 +20°C° 0.2 mm 7 mps 752 mmHg 82%
    16:00 +20°C° 0.2 mm 6 mps 752 mmHg 86%
    17:00 +19°C° 0.3 mm 6 mps 752 mmHg 88%
    18:00 +19°C° 0.3 mm 5 mps 751 mmHg 90%
    19:00 +19°C° 0.3 mm 5 mps 751 mmHg 92%
    20:00 +19°C° 0.4 mm 6 mps 751 mmHg 92%
    21:00 +19°C° 0.4 mm 6 mps 751 mmHg 93%
    22:00 +18°C° 0.4 mm 7 mps 751 mmHg 94%
    23:00 +18°C° 0.3 mm 7 mps 751 mmHg 94%
    Show more